STARLINK-3773 (52291 NORAD) Tracking and Keplerian Element Data

This shows tracking and keplerian element data for the satellite.

Feedback or suggestion? Click here.




ElementValue
Catalog52291
NameSTARLINK-3773
Epoch Orbit130
Epoch Day167.08334491
Epoch Year2022
RAAN101.38
Inclination53.2172
Eccentricity0.00012
Argument of Perigee90.3734
Mean Anonmoly176.1706
Mean Motion15.54923617
Decay Rate-0.00713001
L11 52291U 22041AG 22167.08334491 -.00713001 00000+0 -11446-1 0 9998
L22 52291 53.2172 101.3800 0001200 90.3734 176.1706 15.54923617 1308

Live tracking and technical data element details for STARLINK-3773 (NORAD 52291). STARLINK-3773 can be tracked NOW for your location showing map with azimuth and elevation plus other details from your city location.

Track the satellite on the map from your city or location and see movement details for azimuth, elevation, latitude, longitude, range, height, and movement on the map or in text.







IsCatalogInMostPopularTable: catalog: 52291, numindb: 7
Update: records affected: 1



GetName: 52291 STARLINK-3773

Hit Count: updated at: Mon, 27 Jun 2022 06:04:20 GMT